Terminal Aerodrome Forecast
Issued by NWS St Louis, MO

Home | Current Version | Previous Version | Text Only | Print | Product List | Glossary On
Versions: 1 2 3 4 5 6 7 8 9 10 11 12 13 14 15 16 17 18 19 20 21
000
FTUS43 KLSX 250634 AAB
TAFCOU
TAF AMD
KCOU 250634Z 2507/2606 15007KT 6SM -TSRA OVC050CB
      TEMPO 2507/2508 2SM +TSRA BKN030CB
     FM250800 36005KT P6SM VCTS OVC050CB
     FM251400 03006KT P6SM BKN060
     FM251900 03007KT P6SM SCT150=

USA.gov is the U.S. government's official web portal to all federal, state and local government web resources and services.